Погода в Цимлянске

Погода в Цимлянске : погода сейчас, прогноз погоды и архив. Всё, что Вы хотите узнать о погоде в Цимлянске!

Хотите узнать прогноз погоды в Цимлянске? Тогда Вам сюда: Погода в Цимлянске

Поиск расширенной информации на нашем сайте:

Другие новости

Новости СМИ2

Главная страница сайта

Новости сайта

03.07.2017

Напоминаем, что на нашем специализированном сайте Метеоцентр.Азия вы можете получить высокодетализированные автоматические прогнозы погоды по пунктам России, СНГ и мира в авиационном формате (включающие направление и скорость ветра, видимость, явления погоды, количество и форму облачности, нижнюю и верхнюю границу облачности).

Рекомендуем: Подробности сканер штрих кода у нас.

Погода в Цимлянске - сегодня

Время (UTC), дата Ветер
(°,м/с) 
Видим.   Явления Облачность Т
(°С)
Тd
(°С)
f(%) Тe
(°С)
Pmin
(гПа)
dP
(гПа)
Po
(мм)
O2
(г/м3)
Тmin Tmax R s Состояние
почвы
15 17.10.17 280 (З) 20000 м    10/10 1000 м 
[Sc]
+12.3 +8 75 +13  1016  0.4  756  290    +14.3       
18 17.10.17 300 (СЗ) 20000 м    6/6 600 м 
[Sc]
+9.9 +7.4 84 +9  1018  758  293           
21 17.10.17 270 (З) 20000 м    10/10 300 м 
[St]
+9 +7.6 91 +9  1019.4  1.3  758  295           
00 18.10.17 290 (З) 20000 м    ясно 
+8.9 +7.8 93 +9  1020.7  1.3  759  295           
03 18.10.17 260 (З) 0200 м  туман  ?/?  
+6.8 +6.2 96 +8  1022.4  1.6  761  298  +5.8        влажная 
06 18.10.17 250 (З) 0200 м  туман  ?/?  
+6.9 +6.4 97 +8  1023.8  1.4  762  298           
09 18.10.17 250 (З) 4000 м  в посл. час туман  8/8 300 м 
[St]
+10.1 +9.7 97 +11  1023.3  -0.4  761  294           
12 18.10.17 240 (ЮЗ) 20000 м  {туман}  ясно 
+14.9 +8.9 67 +15  1022.1  -1  761  289           
15 18.10.17 250 (З) 20000 м    6/0 средняя 
[Ac As]
+11.7 +8.5 81 +13  1021.7  -0.5  760  292    +15.1       
18 18.10.17 260 (З) 20000 м    ясно 
+9.6 +6.9 83 +10  1021.8  760  295           
21 18.10.17 260 (З) 20000 м    ясно 
+8.2 +6.8 91 +8  1020.9  -0.9  760  296           
00 19.10.17 260 (З) 20000 м    ясно 
+8.4 +7.8 96 +8  1020.2  -0.7  759  295           
03 19.10.17 240 (ЮЗ) 0200 м  туман  ?/?  
+8.2 +7.7 97 +8  1020.5  0.3  759  296  +8        влажная 
06 19.10.17 250 (З) 0200 м  туман  ?/?  
+10.3 +9.8 97 +11  1020.5  759  293           
09 19.10.17 270 (З) 5{10}  10 км  {туман}  8/8 300 м 
[St]
+15.3 +12 81 +19  1019.3  -1  759  287           
12 19.10.17 250 (З) 5{10}  20000 м  {туман}  4/4 600 м 
[Sc]
+18 +11.6 66 +21  1017.9  -1.3  758  284           
15 19.10.17 260 (З) 2{10}  20000 м    10/0 верхняя 
[Ci fib]
+14.1 +10.7 80 +17  1018.1  758  288    +18.1       
18 19.10.17 260 (З) 20000 м    10/0 верхняя 
[Ci fib]
+12.4 +10.5 88 +14  1017.8  -0.2  757  290           
21 19.10.17 260 (З) 20000 м    10/0 средняя 
[Ac und]
+12.1 +11.2 94 +15  1017.6  -0.2  757  290           
00 20.10.17 270 (З) 10 км    10/10 300 м 
[St]
+11.7 +11 95 +14  1017.5  -0.2  757  290           
03 20.10.17 270 (З) 4000 м  дымка  10/10 300 м 
[St]
+11.6 +11.2 97 +15  1017.8  0.3  757  291  +11.4         
06 20.10.17 270 (З) 0500 м  туман  н/о 
+12.4 +11.8 96 +15  1018.5  0.7  758  290           
09 20.10.17 260 (З) 4000 м  {туман}  10/10 300 м 
[St]
+13.8 +11.9 88 +18  1018.5  758  288           
12 20.10.17 250 (З) 10 км  в посл. час ливневой дождь  10/0 
[St]
+13.4 +12 91 +18  1018.3  -0.2  758  289           
15 20.10.17 250 (З) 20000 м    10/10 300 м 
[St]
+12.7 +11.6 93 +17  1018.7  0.3  758  290    +13.8       
Время (UTC), дата Ветер
(°,м/с) 
Видим.   Явления Облачность Т
(°С)
Тd
(°С)
f(%) Тe
(°С)
Pmin
(гПа)
dP
(гПа)
Po
(мм)
O2
(г/м3)
Тmin Tmax R s Состояние
почвы

Для получения пояснительной информации подведите курсор к названию столбца.

ПОГОДА в Цимлянске - архив

Всё, что Вы хотите узнать о погоде в Цимлянске - удобно и подробно!

Выберите нужную дату (начиная с 1 января 2015* года) и нажмите кнопку "Найти".
Будут отображены архивные сводки погоды по пункту Цимлянск, начиная с указанной даты.


Отображать данные в формате CSV (для использования в таблицах Excel)


Внимание! Наш архив погоды предназначен исключительно для личного некоммерческого использования в познавательных целях. Если Вам необходимы официальные справки о состоянии погоды (для производственных, юридических, коммерческих и т.п. целей), обращайтесь в органы Росгидромета.

*Примечание: данная дата относится к архиву по метеостанциям СССР (Россия, СНГ, Балтия).
Архив по метеостанциям Зарубежной Европы и Азии (кроме Китая) хранится 10 дней, по другим регионам земного шара (Китай, Африка, Америка, Австралия, Океания) - 1 день.

Цимлянск - район местоположения метеостанции


Название, широта, долгота, высота метеостанции:
Цимлянск 47.6°ш. 42.1°д. 65 м над ур. моря [Российская Федерация]

Дополнительная информация

В oтличие oт бoльшинства пoгoдных сайтoв мы публикуем пoдрoбную метеoинфoрмацию в детальнoм прoфессиoнальнoм фoрмате.

Характеристики температуры и влажнoсти вoздуха измеряются на высoте 2 м в тени вдали oт зданий и деревьев.
Скoрoсть ветра измеряется на высoте 10 м (на урoвне рoста челoвека скoрoсть ветра ниже в 1.5-2 раза). Если метеoстанция нахoдится в гoрoде или в лесу, тo скoрoсть ветра занижена на 2-4 м/с пo сравнению с oткрытым местoм. Скoрoсть ветра над акватoриями крупных рек и oзёр, а также на вершинах хoлмoв на 2-5 м/с выше, чем в oбычных услoвиях.
Атмoсфернoе давление в разных тoчках местнoсти мoжет значительнo oтличаться oт давления на метеoстанции, в зависимoсти oт услoвий рельефа (при пoдъёме на 10 м давление пoнижается примернo на 1 мм рт.ст.).